Middletown, PA

2:48 PM EST on January 21, 2017 (GMT -0500)
Harrisburg International Airport

Weather History for KMDT - March, 2013

Change the Weather History Date:

Tuesday, March 26, 2013

  Actual Average Record
Temperature  
Mean Temperature 43 °F 45 °F  
Max Temperature 52 °F 54 °F 80 °F (1927)
Min Temperature 33 °F 36 °F 22 °F (1955)
Degree Days  
Heating Degree Days 22 20  
Month to date heating degree days 699 628  
Since 1 July heating degree days 4490 4616  
Cooling Degree Days 0 0  
Month to date cooling degree days 0 0  
Year to date cooling degree days 0 0  
Moisture  
Dew Point 30 °F    
Average Humidity 61    
Maximum Humidity 89    
Minimum Humidity 32    
Precipitation  
Precipitation 0.01 in 0.12 in 1.76 in (1978)
Month to date precipitation 2.34 2.79  
Year to date precipitation 7.29 8.06  
Snow  
Snow 0.00 in 0.10 in 1.00 in (1900)
Month to date snowfall 3.7 4.8  
Since 1 July snowfall 17.0 29.8  
Snow Depth 1.00 in    
Sea Level Pressure  
Sea Level Pressure 29.82 in    
Wind  
Wind Speed 10 mph (WNW)    
Max Wind Speed 23 mph    
Max Gust Speed 28 mph    
Visibility 10 miles    
Events Rain    
T = Trace of Precipitation, MM = Missing Value Source: NWS Daily Summary

Daily Weather History Graph

Daily Weather History Graph

Search for Another Location

Airport or City:

Trip Planner

Search our weather history database for the weather conditions in past years. The results will help you decide how hot, cold, wet, or windy it might be!

Date:

Astronomy

Mar. 26, 2013 Rise Set
Actual Time 7:00 AM EDT 7:25 PM EDT
Civil Twilight 6:33 AM EDT 7:52 PM EDT
Nautical Twilight 6:01 AM EDT 8:24 PM EDT
Astronomical Twilight 5:28 AM EDT 8:57 PM EDT
Moon 7:00 PM EDT (3/26) 6:15 AM EDT (3/26)
Length of Visible Light 13h 19m
Length of Day
12h 25m
Waxing Gibbous, 99% of the Moon is Illuminated
Mar 26
Waxing Gibbous
Mar 27
Full
Apr 3
Last Quarter
Apr 10
New
Apr 18
First Quarter

Hourly Weather History & Observations

Time (EDT) Temp. Windchill Dew Point Humidity Pressure Visibility Wind Dir Wind Speed Gust Speed Precip Events Conditions
12:20 AM 33.8 °F 26.4 °F 30.2 °F 87% 29.68 in 8.0 mi NW 9.2 mph - 0.00 in Rain Light Rain
12:56 AM 34.0 °F 26.6 °F 32.0 °F 92% 29.70 in 9.0 mi NW 9.2 mph - 0.00 in   Overcast
1:56 AM 35.1 °F 27.4 °F 30.9 °F 85% 29.71 in 10.0 mi NW 10.4 mph - N/A   Overcast
2:56 AM 34.0 °F 29.8 °F 30.9 °F 89% 29.72 in 10.0 mi WNW 4.6 mph - N/A   Overcast
3:56 AM 35.1 °F 30.1 °F 30.0 °F 82% 29.73 in 10.0 mi WNW 5.8 mph - N/A   Overcast
4:56 AM 34.0 °F 28.0 °F 30.0 °F 85% 29.74 in 10.0 mi WNW 6.9 mph - N/A   Overcast
5:56 AM 34.0 °F 28.8 °F 28.9 °F 82% 29.76 in 10.0 mi WNW 5.8 mph - N/A   Mostly Cloudy
6:56 AM 34.0 °F 27.2 °F 28.9 °F 82% 29.78 in 10.0 mi WNW 8.1 mph - N/A   Scattered Clouds
7:56 AM 34.0 °F 27.2 °F 28.9 °F 82% 29.80 in 10.0 mi NW 8.1 mph - N/A   Scattered Clouds
8:56 AM 36.0 °F 29.6 °F 30.0 °F 79% 29.82 in 10.0 mi NW 8.1 mph - N/A   Overcast
9:56 AM 39.9 °F 32.5 °F 30.9 °F 70% 29.83 in 10.0 mi WNW 12.7 mph - N/A   Overcast
10:56 AM 41.0 °F 34.7 °F 30.9 °F 67% 29.84 in 10.0 mi NW 10.4 mph - N/A   Mostly Cloudy
11:56 AM 45.0 °F 39.3 °F 33.1 °F 63% 29.84 in 10.0 mi WNW 11.5 mph - N/A   Scattered Clouds
12:56 PM 46.9 °F - 30.0 °F 52% 29.84 in 10.0 mi WNW 10.4 mph - N/A   Scattered Clouds
1:56 PM 46.9 °F - 27.0 °F 46% 29.83 in 10.0 mi West 11.5 mph - N/A   Mostly Cloudy
2:56 PM 52.0 °F - 23.0 °F 32% 29.82 in 10.0 mi NW 13.8 mph 23.0 mph N/A   Mostly Cloudy
3:56 PM 48.9 °F - 26.1 °F 41% 29.81 in 10.0 mi WNW 11.5 mph - N/A   Overcast
4:56 PM 45.0 °F 39.7 °F 32.0 °F 60% 29.84 in 10.0 mi NNW 10.4 mph 18.4 mph 0.00 in Rain Light Rain
5:56 PM 46.0 °F 43.1 °F 32.0 °F 58% 29.84 in 10.0 mi West 5.8 mph - 0.00 in   Mostly Cloudy
6:56 PM 42.1 °F 38.4 °F 36.0 °F 79% 29.86 in 10.0 mi WSW 5.8 mph - 0.01 in   Mostly Cloudy
7:56 PM 41.0 °F 38.0 °F 32.0 °F 70% 29.89 in 10.0 mi WNW 4.6 mph - 0.00 in   Mostly Cloudy
8:56 PM 43.0 °F 36.0 °F 30.9 °F 62% 29.91 in 10.0 mi WNW 13.8 mph 24.2 mph N/A   Mostly Cloudy
9:56 PM 42.1 °F 34.2 °F 28.9 °F 60% 29.93 in 10.0 mi WNW 16.1 mph - N/A   Mostly Cloudy
10:56 PM 42.1 °F 35.2 °F 27.0 °F 55% 29.94 in 10.0 mi NW 12.7 mph - N/A   Mostly Cloudy
11:56 PM 41.0 °F 33.9 °F 28.0 °F 60% 29.96 in 10.0 mi WNW 12.7 mph - N/A   Mostly Cloudy